Time,TemperatureF,DewpointF,PressureIn,WindDirection,WindDirectionDegrees,WindSpeedMPH,WindSpeedGustMPH,Humidity,HourlyPrecipIn,Conditions,Clouds,dailyrainin,SoftwareType,DateUTC
2013-01-21 00:04:00,24.0,12.0,-100.00,WNW,290,1.0,6.0,60,0.00,,,-99.99,,2013-01-21 05:04:00,
2013-01-21 00:12:00,24.0,12.0,-100.00,WNW,290,2.0,3.0,61,0.00,,,-99.99,,2013-01-21 05:12:00,
2013-01-21 00:22:00,24.0,13.0,-100.00,West,265,3.0,6.0,61,0.00,,,-99.99,,2013-01-21 05:22:00,
2013-01-21 00:34:00,24.0,13.0,-100.00,WNW,300,1.0,6.0,62,0.00,,,-99.99,,2013-01-21 05:34:00,
2013-01-21 00:42:00,24.0,13.0,-100.00,West,275,2.0,4.0,62,0.00,,,-99.99,,2013-01-21 05:42:00,
2013-01-21 00:52:00,24.0,13.0,-100.00,North,350,1.0,4.0,63,0.00,,,-99.99,,2013-01-21 05:52:00,
2013-01-21 01:03:00,24.0,13.0,-100.00,NNW,335,1.0,8.0,62,0.00,,,-99.99,,2013-01-21 06:03:00,
2013-01-21 01:13:00,24.0,13.0,-100.00,NNW,330,1.0,3.0,62,0.00,,,-99.99,,2013-01-21 06:13:00,
2013-01-21 01:23:00,24.0,13.0,-100.00,North,350,1.0,3.0,62,0.00,,,-99.99,,2013-01-21 06:23:00,
2013-01-21 01:33:00,24.0,13.0,-100.00,North,350,1.0,3.0,62,0.00,,,-99.99,,2013-01-21 06:33:00,
2013-01-21 01:43:00,24.0,13.0,-100.00,West,275,1.0,6.0,61,0.00,,,-99.99,,2013-01-21 06:43:00,
2013-01-21 01:52:00,24.0,13.0,-100.00,West,270,2.0,4.0,62,0.00,,,-99.99,,2013-01-21 06:52:00,
2013-01-21 02:03:00,24.0,13.0,-100.00,NW,305,1.0,4.0,62,0.00,,,-99.99,,2013-01-21 07:03:00,
2013-01-21 02:13:00,24.0,13.0,-100.00,West,265,2.0,6.0,62,0.00,,,-99.99,,2013-01-21 07:13:00,
2013-01-21 02:22:00,24.0,13.0,-100.00,West,265,2.0,6.0,62,0.00,,,-99.99,,2013-01-21 07:22:00,
2013-01-21 02:33:00,24.0,12.0,-100.00,WNW,290,1.0,3.0,61,0.00,,,-99.99,,2013-01-21 07:33:00,
2013-01-21 02:42:00,24.0,13.0,-100.00,West,280,2.0,5.0,62,0.00,,,-99.99,,2013-01-21 07:42:00,
2013-01-21 02:52:00,24.0,13.0,-100.00,WNW,295,2.0,3.0,62,0.00,,,-99.99,,2013-01-21 07:52:00,
2013-01-21 03:03:00,24.0,13.0,-100.00,WNW,290,2.0,6.0,62,0.00,,,-99.99,,2013-01-21 08:03:00,
2013-01-21 03:14:00,24.0,12.0,-100.00,West,275,5.0,6.0,60,0.00,,,-99.99,,2013-01-21 08:14:00,
2013-01-21 03:23:00,24.0,12.0,-100.00,WNW,290,2.0,6.0,61,0.00,,,-99.99,,2013-01-21 08:23:00,
2013-01-21 03:33:00,24.0,12.0,-100.00,West,270,3.0,6.0,61,0.00,,,-99.99,,2013-01-21 08:33:00,
2013-01-21 03:42:00,24.0,12.0,-100.00,West,270,3.0,6.0,61,0.00,,,-99.99,,2013-01-21 08:42:00,
2013-01-21 03:53:00,24.0,12.0,-100.00,WNW,290,2.0,6.0,61,0.00,,,-99.99,,2013-01-21 08:53:00,
2013-01-21 04:03:00,24.0,12.0,-100.00,West,275,4.0,6.0,62,0.00,,,-99.99,,2013-01-21 09:03:00,
2013-01-21 04:12:00,24.0,13.0,-100.00,West,275,2.0,6.0,62,0.00,,,-99.99,,2013-01-21 09:12:00,
2013-01-21 04:23:00,24.0,13.0,-100.00,SW,215,1.0,4.0,63,0.00,,,-99.99,,2013-01-21 09:23:00,
2013-01-21 04:33:00,24.0,13.0,-100.00,SSW,205,1.0,5.0,64,0.00,,,-99.99,,2013-01-21 09:33:00,
2013-01-21 04:42:00,24.0,13.0,-100.00,SW,225,1.0,3.0,64,0.00,,,-99.99,,2013-01-21 09:42:00,
2013-01-21 04:52:00,24.0,13.0,-100.00,SW,230,2.0,4.0,64,0.00,,,-99.99,,2013-01-21 09:52:00,
2013-01-21 05:02:00,24.0,13.0,-100.00,WSW,250,2.0,7.0,64,0.00,,,-99.99,,2013-01-21 10:02:00,
2013-01-21 05:12:00,24.0,12.0,-100.00,West,275,5.0,9.0,62,0.00,,,-99.99,,2013-01-21 10:12:00,
2013-01-21 05:22:00,24.0,12.0,-100.00,West,270,6.0,8.0,61,0.00,,,-99.99,,2013-01-21 10:22:00,
2013-01-21 05:33:00,24.0,12.0,-100.00,SW,215,2.0,7.0,62,0.00,,,-99.99,,2013-01-21 10:33:00,
2013-01-21 05:43:00,23.0,13.0,-100.00,WSW,240,3.0,7.0,63,0.00,,,-99.99,,2013-01-21 10:43:00,
2013-01-21 05:52:00,24.0,13.0,-100.00,West,270,6.0,9.0,63,0.00,,,-99.99,,2013-01-21 10:52:00,
2013-01-21 06:03:00,23.0,13.0,-100.00,West,260,3.0,9.0,63,0.00,,,-99.99,,2013-01-21 11:03:00,
2013-01-21 06:13:00,23.0,13.0,-100.00,SSW,195,2.0,9.0,64,0.00,,,-99.99,,2013-01-21 11:13:00,
2013-01-21 06:23:00,23.0,13.0,-100.00,SW,235,2.0,9.0,64,0.00,,,-99.99,,2013-01-21 11:23:00,
2013-01-21 06:33:00,23.0,14.0,-100.00,SW,215,1.0,9.0,66,0.00,,,-99.99,,2013-01-21 11:33:00,
2013-01-21 06:43:00,23.0,14.0,-100.00,SW,225,2.0,7.0,67,0.00,,,-99.99,,2013-01-21 11:43:00,
2013-01-21 06:53:00,23.0,14.0,-100.00,SSW,195,1.0,7.0,67,0.00,,,-99.99,,2013-01-21 11:53:00,
2013-01-21 07:03:00,23.0,14.0,-100.00,West,275,4.0,8.0,67,0.00,,,-99.99,,2013-01-21 12:03:00,
2013-01-21 07:12:00,23.0,13.0,-100.00,SSW,195,2.0,6.0,66,0.00,,,-99.99,,2013-01-21 12:12:00,
2013-01-21 07:22:00,23.0,13.0,-100.00,West,260,3.0,8.0,65,0.00,,,-99.99,,2013-01-21 12:22:00,
2013-01-21 07:33:00,23.0,13.0,-100.00,WNW,285,3.0,7.0,65,0.00,,,-99.99,,2013-01-21 12:33:00,
2013-01-21 07:42:00,23.0,13.0,-100.00,West,275,4.0,9.0,64,0.00,,,-99.99,,2013-01-21 12:42:00,
2013-01-21 07:52:00,23.0,13.0,-100.00,SW,225,2.0,7.0,66,0.00,,,-99.99,,2013-01-21 12:52:00,
2013-01-21 08:03:00,23.0,14.0,-100.00,West,275,2.0,10.0,67,0.00,,,-99.99,,2013-01-21 13:03:00,
2013-01-21 08:13:00,23.0,13.0,-100.00,SW,220,2.0,11.0,67,0.00,,,-99.99,,2013-01-21 13:13:00,
2013-01-21 08:23:00,23.0,14.0,-100.00,SW,220,2.0,11.0,67,0.00,,,-99.99,,2013-01-21 13:23:00,
2013-01-21 08:33:00,23.0,14.0,-100.00,SW,220,2.0,9.0,68,0.00,,,-99.99,,2013-01-21 13:33:00,
2013-01-21 08:43:00,23.0,13.0,-100.00,WSW,245,2.0,7.0,67,0.00,,,-99.99,,2013-01-21 13:43:00,
2013-01-21 08:53:00,23.0,13.0,-100.00,WSW,245,2.0,7.0,67,0.00,,,-99.99,,2013-01-21 13:53:00,
2013-01-21 09:03:00,23.0,13.0,-100.00,West,260,3.0,13.0,65,0.00,,,-99.99,,2013-01-21 14:03:00,
2013-01-21 09:12:00,23.0,13.0,-100.00,SSW,200,6.0,11.0,64,0.00,,,-99.99,,2013-01-21 14:12:00,
2013-01-21 09:23:00,23.0,13.0,-100.00,SW,220,2.0,12.0,65,0.00,,,-99.99,,2013-01-21 14:23:00,
2013-01-21 09:33:00,23.0,13.0,-100.00,SW,230,2.0,6.0,65,0.00,,,-99.99,,2013-01-21 14:33:00,
2013-01-21 09:43:00,23.0,13.0,-100.00,SW,230,2.0,6.0,65,0.00,,,-99.99,,2013-01-21 14:43:00,
2013-01-21 09:53:00,23.0,14.0,-100.00,West,280,8.0,14.0,68,0.00,,,-99.99,,2013-01-21 14:53:00,
2013-01-21 10:03:00,23.0,15.0,-100.00,SW,230,3.0,11.0,70,0.55,,,-99.99,,2013-01-21 15:03:00,
2013-01-21 10:13:00,23.0,15.0,-100.00,SW,230,3.0,12.0,70,0.00,,,-99.99,,2013-01-21 15:13:00,
2013-01-21 10:23:00,24.0,15.0,-100.00,SW,230,4.0,9.0,71,0.00,,,-99.99,,2013-01-21 15:23:00,
2013-01-21 10:33:00,23.0,16.0,-100.00,SW,215,3.0,14.0,72,0.00,,,-99.99,,2013-01-21 15:33:00,
2013-01-21 10:43:00,24.0,17.0,-100.00,West,270,5.0,9.0,75,1.10,,,-99.99,,2013-01-21 15:43:00,
2013-01-21 10:53:00,23.0,17.0,-100.00,West,280,6.0,17.0,77,0.55,,,-99.99,,2013-01-21 15:53:00,
2013-01-21 11:04:00,24.0,18.0,-100.00,West,260,6.0,15.0,79,0.00,,,-99.99,,2013-01-21 16:04:00,
2013-01-21 11:12:00,23.0,18.0,-100.00,WSW,245,6.0,16.0,78,0.00,,,-99.99,,2013-01-21 16:12:00,
2013-01-21 11:23:00,23.0,15.0,-100.00,SW,225,7.0,19.0,70,0.00,,,-99.99,,2013-01-21 16:23:00,
2013-01-21 11:33:00,23.0,15.0,-100.00,WSW,240,3.0,16.0,71,0.00,,,-99.99,,2013-01-21 16:33:00,
2013-01-21 11:43:00,22.0,17.0,-100.00,West,270,12.0,20.0,80,6.22,,,-99.99,,2013-01-21 16:43:00,
2013-01-21 11:53:00,21.0,17.0,-100.00,West,275,9.0,17.0,84,1.10,,,-99.99,,2013-01-21 16:53:00,
2013-01-21 12:03:00,22.0,18.0,-100.00,West,275,9.0,16.0,86,2.83,,,-99.99,,2013-01-21 17:03:00,
2013-01-21 12:12:00,22.0,19.0,-100.00,West,275,5.0,15.0,87,3.94,,,-99.99,,2013-01-21 17:12:00,
2013-01-21 12:23:00,22.0,19.0,-100.00,West,275,9.0,16.0,85,0.00,,,-99.99,,2013-01-21 17:23:00,
2013-01-21 12:33:00,24.0,16.0,-100.00,West,270,7.0,17.0,73,0.00,,,-99.99,,2013-01-21 17:33:00,
2013-01-21 12:43:00,23.0,15.0,-100.00,West,270,11.0,21.0,71,0.55,,,-99.99,,2013-01-21 17:43:00,
2013-01-21 12:53:00,23.0,15.0,-100.00,West,265,9.0,19.0,71,0.00,,,-99.99,,2013-01-21 17:53:00,
2013-01-21 13:03:00,23.0,14.0,-100.00,West,275,11.0,21.0,69,0.00,,,-99.99,,2013-01-21 18:03:00,
2013-01-21 13:12:00,22.0,14.0,-100.00,West,270,11.0,22.0,72,0.00,,,-99.99,,2013-01-21 18:12:00,
2013-01-21 13:22:00,22.0,16.0,-100.00,West,275,10.0,18.0,78,0.55,,,-99.99,,2013-01-21 18:22:00,
2013-01-21 13:33:00,21.0,17.0,-100.00,West,275,14.0,19.0,83,1.10,,,-99.99,,2013-01-21 18:33:00,
2013-01-21 13:42:00,21.0,17.0,-100.00,West,280,10.0,20.0,86,0.00,,,-99.99,,2013-01-21 18:42:00,
2013-01-21 13:52:00,21.0,16.0,-100.00,West,280,11.0,18.0,81,0.55,,,-99.99,,2013-01-21 18:52:00,
2013-01-21 14:03:00,22.0,16.0,-100.00,West,270,10.0,19.0,80,0.55,,,-99.99,,2013-01-21 19:03:00,
2013-01-21 14:12:00,21.0,16.0,-100.00,West,270,13.0,19.0,80,1.69,,,-99.99,,2013-01-21 19:12:00,
2013-01-21 14:22:00,23.0,16.0,-100.00,West,265,10.0,18.0,74,0.55,,,-99.99,,2013-01-21 19:22:00,
2013-01-21 14:33:00,22.0,11.0,-100.00,West,270,9.0,22.0,63,0.00,,,-99.99,,2013-01-21 19:33:00,
2013-01-21 14:43:00,22.0,12.0,-100.00,West,275,12.0,22.0,63,0.00,,,-99.99,,2013-01-21 19:43:00,
2013-01-21 14:53:00,21.0,13.0,-100.00,West,280,9.0,24.0,71,2.24,,,-99.99,,2013-01-21 19:53:00,
2013-01-21 15:03:00,21.0,12.0,-100.00,West,275,12.0,17.0,68,0.55,,,-99.99,,2013-01-21 20:03:00,
2013-01-21 15:12:00,21.0,11.0,-100.00,West,275,9.0,22.0,64,0.00,,,-99.99,,2013-01-21 20:12:00,
2013-01-21 15:23:00,21.0,10.0,-100.00,West,275,13.0,19.0,62,0.00,,,-99.99,,2013-01-21 20:23:00,
2013-01-21 15:33:00,21.0,10.0,-100.00,West,275,13.0,19.0,62,0.00,,,-99.99,,2013-01-21 20:33:00,
2013-01-21 15:43:00,21.0,11.0,-100.00,West,275,9.0,19.0,64,0.00,,,-99.99,,2013-01-21 20:43:00,
2013-01-21 15:53:00,20.0,9.0,-100.00,West,270,16.0,22.0,60,0.00,,,-99.99,,2013-01-21 20:53:00,
2013-01-21 16:04:00,20.0,8.0,-100.00,West,275,13.0,21.0,59,0.00,,,-99.99,,2013-01-21 21:04:00,
2013-01-21 16:12:00,20.0,9.0,-100.00,West,275,9.0,19.0,62,0.00,,,-99.99,,2013-01-21 21:12:00,
2013-01-21 16:23:00,20.0,9.0,-100.00,WNW,285,7.0,24.0,62,0.00,,,-99.99,,2013-01-21 21:23:00,
2013-01-21 16:33:00,20.0,9.0,-100.00,West,265,14.0,23.0,61,0.00,,,-99.99,,2013-01-21 21:33:00,
2013-01-21 16:43:00,19.0,9.0,-100.00,West,265,12.0,25.0,65,0.00,,,-99.99,,2013-01-21 21:43:00,
2013-01-21 16:53:00,19.0,9.0,-100.00,West,270,11.0,21.0,64,0.00,,,-99.99,,2013-01-21 21:53:00,
2013-01-21 17:03:00,19.0,6.0,-100.00,West,265,12.0,22.0,56,0.00,,,-99.99,,2013-01-21 22:03:00,
2013-01-21 17:13:00,19.0,6.0,-100.00,West,275,12.0,19.0,56,0.00,,,-99.99,,2013-01-21 22:13:00,
2013-01-21 17:23:00,19.0,6.0,-100.00,West,265,7.0,16.0,57,0.00,,,-99.99,,2013-01-21 22:23:00,
2013-01-21 17:33:00,18.0,6.0,-100.00,West,265,17.0,25.0,61,0.00,,,-99.99,,2013-01-21 22:33:00,
2013-01-21 17:43:00,17.0,7.0,-100.00,WNW,285,10.0,22.0,64,0.00,,,-99.99,,2013-01-21 22:43:00,
2013-01-21 17:52:00,17.0,7.0,-100.00,West,270,6.0,19.0,64,0.00,,,-99.99,,2013-01-21 22:52:00,
2013-01-21 18:03:00,17.0,6.0,-100.00,West,270,10.0,16.0,60,0.00,,,-99.99,,2013-01-21 23:03:00,
2013-01-21 18:13:00,17.0,5.0,-100.00,West,275,12.0,22.0,57,0.00,,,-99.99,,2013-01-21 23:13:00,
2013-01-21 18:23:00,17.0,5.0,-100.00,West,275,12.0,22.0,57,0.00,,,-99.99,,2013-01-21 23:23:00,
2013-01-21 18:33:00,17.0,8.0,-100.00,SW,220,5.0,15.0,65,0.00,,,-99.99,,2013-01-21 23:33:00,
2013-01-21 18:42:00,16.0,9.0,-100.00,West,275,14.0,20.0,73,0.55,,,-99.99,,2013-01-21 23:42:00,
2013-01-21 18:53:00,16.0,10.0,-100.00,West,270,12.0,19.0,78,1.10,,,-99.99,,2013-01-21 23:53:00,
2013-01-21 19:03:00,15.0,11.0,-100.00,West,260,11.0,19.0,81,0.00,,,-99.99,,2013-01-22 00:03:00,
2013-01-21 19:12:00,15.0,11.0,-100.00,West,275,13.0,20.0,83,2.83,,,-99.99,,2013-01-22 00:12:00,
2013-01-21 19:22:00,15.0,8.0,-100.00,West,275,11.0,22.0,73,0.00,,,-99.99,,2013-01-22 00:22:00,
2013-01-21 19:33:00,15.0,8.0,-100.00,West,275,11.0,16.0,72,0.00,,,-99.99,,2013-01-22 00:33:00,
2013-01-21 19:43:00,15.0,5.0,-100.00,West,270,9.0,22.0,63,0.00,,,-99.99,,2013-01-22 00:43:00,
2013-01-21 19:53:00,15.0,2.0,-100.00,West,270,12.0,20.0,56,0.00,,,-99.99,,2013-01-22 00:53:00,
2013-01-21 20:02:00,15.0,1.0,-100.00,West,275,13.0,25.0,55,0.00,,,-99.99,,2013-01-22 01:02:00,
2013-01-21 20:12:00,15.0,1.0,-100.00,West,275,13.0,25.0,55,0.00,,,-99.99,,2013-01-22 01:12:00,
2013-01-21 20:23:00,14.0,1.0,-100.00,West,275,10.0,18.0,55,0.00,,,-99.99,,2013-01-22 01:23:00,
2013-01-21 20:33:00,14.0,2.0,-100.00,West,270,16.0,22.0,58,0.00,,,-99.99,,2013-01-22 01:33:00,
2013-01-21 20:42:00,14.0,2.0,-100.00,West,275,7.0,19.0,58,0.00,,,-99.99,,2013-01-22 01:42:00,
2013-01-21 20:53:00,13.0,0.0,-100.00,WNW,285,9.0,23.0,55,0.00,,,-99.99,,2013-01-22 01:53:00,
2013-01-21 21:03:00,13.0,0.0,-100.00,West,265,9.0,19.0,56,0.00,,,-99.99,,2013-01-22 02:03:00,
2013-01-21 21:12:00,13.0,1.0,-100.00,West,265,7.0,19.0,59,0.00,,,-99.99,,2013-01-22 02:12:00,
2013-01-21 21:22:00,12.0,0.0,-100.00,WNW,290,12.0,19.0,56,0.00,,,-99.99,,2013-01-22 02:22:00,
2013-01-21 21:32:00,12.0,0.0,-100.00,West,280,7.0,16.0,56,0.00,,,-99.99,,2013-01-22 02:32:00,
2013-01-21 21:43:00,12.0,-1.0,-100.00,West,260,7.0,18.0,55,0.00,,,-99.99,,2013-01-22 02:43:00,
2013-01-21 21:53:00,12.0,-1.0,-100.00,West,275,7.0,12.0,55,0.00,,,-99.99,,2013-01-22 02:53:00,
2013-01-21 22:03:00,11.0,-2.0,-100.00,West,275,11.0,17.0,55,0.00,,,-99.99,,2013-01-22 03:03:00,
2013-01-21 22:12:00,11.0,-2.0,-100.00,West,270,7.0,15.0,54,0.00,,,-99.99,,2013-01-22 03:12:00,
2013-01-21 22:22:00,11.0,-2.0,-100.00,West,270,7.0,15.0,54,0.00,,,-99.99,,2013-01-22 03:22:00,
2013-01-21 22:33:00,11.0,-1.0,-100.00,West,270,7.0,17.0,56,0.00,,,-99.99,,2013-01-22 03:33:00,
2013-01-21 22:42:00,11.0,-2.0,-100.00,West,265,9.0,17.0,56,0.00,,,-99.99,,2013-01-22 03:42:00,
2013-01-21 22:52:00,11.0,-2.0,-100.00,West,270,11.0,16.0,56,0.00,,,-99.99,,2013-01-22 03:52:00,
2013-01-21 23:03:00,11.0,-2.0,-100.00,West,270,11.0,18.0,56,0.00,,,-99.99,,2013-01-22 04:03:00,
2013-01-21 23:12:00,10.0,-2.0,-100.00,West,270,7.0,18.0,56,0.00,,,-99.99,,2013-01-22 04:12:00,
2013-01-21 23:22:00,10.0,-3.0,-100.00,WNW,285,7.0,22.0,55,0.00,,,-99.99,,2013-01-22 04:22:00,
2013-01-21 23:33:00,10.0,-3.0,-100.00,WNW,285,7.0,22.0,55,0.00,,,-99.99,,2013-01-22 04:33:00,
2013-01-21 23:42:00,10.0,-2.0,-100.00,West,270,10.0,25.0,57,0.00,,,-99.99,,2013-01-22 04:42:00,
2013-01-21 23:52:00,10.0,-2.0,-100.00,West,275,10.0,19.0,56,0.00,,,-99.99,,2013-01-22 04:52:00,